Regional Weather Roundup
Issued by NWS

Home | Current Version | Previous Version | Graphics & Text | Print | Product List | Glossary On
Versions: 1 2 3 4 5 6 7 8 9 10 11 12 13 14 15 16 17 18 19 20 21 22 23 24 25 26 27 28 29 30 31 32 33 34 35 36 37 38 39 40 41 42 43 44 45 46 47 48 49 50
000
ASUS45 KPSR 222000
RWRAZ

PRELIMINARY ARIZONA REGIONAL HOURLY WEATHER ROUNDUP
NATIONAL WEATHER SERVICE PHOENIX AZ
100 PM MST SAT NOV 22 2014

NOTE: FAIR INDICATES FEW OR NO CLOUDS BELOW 12,000 FEET WITH NO
SIGNIFICANT WEATHER AND/OR OBSTRUCTIONS TO VISIBILITY.

AZZ001>003-036-222100-
NORTHWEST ARIZONA

CITY           SKY/WX    TMP DP  RH WIND       PRES   REMARKS
KINGMAN        SUNNY     65  22  19 SW20G25   30.04F
$$

AZZ004>008-015-016-018-222100-
NORTH CENTRAL ARIZONA

CITY           SKY/WX    TMP DP  RH WIND       PRES   REMARKS
GRAND CANYON   PTSUNNY   53  17  24 SW18      30.07F
PRESCOTT       SUNNY     62  17  17 SW10G20   30.08F
FLAGSTAFF      NOT AVBL
PAYSON         SUNNY     59  18  20 SW9       30.10F
$$

AZZ009>014-017-222100-
NORTHEAST ARIZONA

CITY           SKY/WX    TMP DP  RH WIND       PRES   REMARKS
WINSLOW        NOT AVBL
SAINT JOHNS    SUNNY     53  22  29 CALM      30.06F
SHOW LOW       SUNNY     54  14  20 W9        30.11F
$$

AZZ023-222100-
GREATER PHOENIX AREA

CITY           SKY/WX    TMP DP  RH WIND       PRES   REMARKS
PHOENIX        MOSUNNY   68  32  26 S7        30.01F
BUCKEYE          N/A     66  28  24 CALM      30.03F
GLENDALE       MOSUNNY   66  34  30 VRB5      30.04F
LUKE AFB       SUNNY     64  36  34 VRB3      30.04F
DEER VALLEY    SUNNY     64  30  27 S5        30.02F
SCOTTSDALE     SUNNY     65  33  30 S6        30.04F
MESA-FALCON    MOSUNNY   66  32  28 S9        30.02F
MESA-GATEWAY   MOSUNNY   66  34  30 CALM      30.04F
CHANDLER       MOSUNNY   66  34  30 SW7       30.03F
$$

AZZ027-028-222100-
SOUTHWEST MARICOPA COUNTY AND PINAL COUNTY

CITY           SKY/WX    TMP DP  RH WIND       PRES   REMARKS
CASA GRANDE    SUNNY     66  30  26 CALM      30.03F
$$

AZZ503-504-507>509-222100-
SOUTHEAST ARIZONA

CITY           SKY/WX    TMP DP  RH WIND       PRES   REMARKS
TUCSON         SUNNY     65  27  23 VRB6      30.08F
DAVIS-MONTHAN  SUNNY     64  31  29 W2        30.06F
RYAN FIELD       N/A    N/A N/A N/A W8        30.08F
NOGALES        SUNNY     63  30  28 VRB6      30.10F
SIERRA VISTA   SUNNY     63  23  21 N5        30.10F
DOUGLAS        SUNNY     64  24  21 W7        30.09F
SAFFORD        SUNNY     63  22  20 VRB5      30.04F
$$

AZZ020-021-025-026-031-222100-
SOUTHWEST ARIZONA

CITY           SKY/WX    TMP DP  RH WIND       PRES   REMARKS
YUMA           NOT AVBL
$$

CAZ031-033-041-043-047-048-061-222100-
SOUTHERN CALIFORNIA

CITY           SKY/WX    TMP DP  RH WIND       PRES   REMARKS
DOWNTOWN L.A.  SUNNY     70  49  47 CALM      30.06F
L.A. AIRPORT   MOSUNNY   69  51  52 W10       30.07F
SAN DIEGO      MOSUNNY   71  46  40 NW7       30.09F
BURBANK        SUNNY     69  40  34 CALM      30.06F
ONTARIO        PTSUNNY   67  43  41 VRB3      30.07F
RIVERSIDE      SUNNY     68  44  42 CALM      30.07F
PALM SPRINGS   SUNNY     71  34  25 SE3       29.99F
EL CENTRO NAS  MOSUNNY   77  40  26 CALM      29.99F
IMPERIAL       MOSUNNY   75  41  29 S3        29.98F
BLYTHE         SUNNY     71  37  28 SE3       30.00F
NEEDLES        SUNNY     71  26  18 VRB5      29.99F
$$

NVZ020-UTZ003-222100-
SOUTHERN NEVADA-UTAH

CITY           SKY/WX    TMP DP  RH WIND       PRES   REMARKS
LAS VEGAS      NOT AVBL
SALT LAKE CITY LGT RAIN  46  36  68 S28G40    29.76F
$$

NMZ009-TXZ055-222100-
NEW MEXICO-WEST TEXAS

CITY           SKY/WX    TMP DP  RH WIND       PRES   REMARKS
ALBUQUERQUE    MOSUNNY   53  20  27 SW5       30.01F
EL PASO        MOSUNNY   65  33  30 W16       29.98F
$$


........................KEY........................
SKY/WX - SKY CONDITION/WEATHER
TMP    - TEMPERATURE IN FAHRENHEIT
DP     - DEW POINT IN FAHRENHEIT
RH     - RELATIVE HUMIDITY IN PERCENT
WIND   - DIRECTION AND SPEED IN MILES PER HOUR (MPH)
VRB    - VARIABLE WIND DIRECTION
PRES   - MEAN SEA LEVEL PRESSURE IN INCHES OF MERCURY
         F - FALLING PRESSURE   R - RISING PRESSURE
         S - STEADY PRESSURE
VSB    - VISIBILITY IN MILES
HX     - HEAT INDEX IN FAHRENHEIT
WCI    - WIND CHILL INDEX IN FAHRENHEIT
TC     - TEMPERATURE IN CELSIUS WHICH IS ALSO KNOWN AS
         TEMPERATURE IN CENTIGRADE
AFB    - AIR FORCE BASE
         LUKE AFB IS LUKE AIR FORCE BASE
         DAVIS-MONTHAN IS DAVIS-MONTHAN AIR FORCE BASE
NAS    - NAVAL AIR STATION
         EL CENTRO NAS IS EL CENTRO NAVAL AIR STATION
N/A    - NOT AVAILABLE


USA.gov is the U.S. government's official web portal to all federal, state and local government web resources and services.